MAYA-4 (49274 NORAD) Tracking and Keplerian Element Data

This shows tracking and keplerian element data for the satellite.

Feedback or suggestion? Click here.




ElementValue
Catalog49274
NameMAYA-4
Epoch Orbit138
Epoch Day287.71050722
Epoch Year2021
RAAN111.6721
Inclination51.6416
Eccentricity0.0005332
Argument of Perigee124.5003
Mean Anonmoly235.649
Mean Motion15.49993447
Decay Rate0.00017194
L11 49274U 98067ST 21287.71050722 .00017194 00000-0 30857-3 0 9998
L22 49274 51.6416 111.6721 0005332 124.5003 235.6490 15.49993447 1384

Live tracking and technical data element details for MAYA-4 (NORAD 49274). MAYA-4 can be tracked NOW for your location showing map with azimuth and elevation plus other details from your city location.

Track the satellite on the map from your city or location and see movement details for azimuth, elevation, latitude, longitude, range, height, and movement on the map or in text.







IsCatalogInMostPopularTable: catalog: 49274, numindb: 5
Update: records affected: 1



GetName: 49274 MAYA-4

Hit Count: updated at: Tue, 19 Oct 2021 08:21:20 GMT